Location: �chenoz-la-M�line
(47.6009°N, 6.1354°E)
Time: 13:09:23
(UTC+00:00)

MOS 1-B - Pass Details

Date: 27 January 2021
Orbit: 905 x 914 km, 99.4° (Epoch: 02 March)

Event Time Altitude Azimuth Distance (km) Brightness Sun altitude
Rises 06:08:58 0° 14° (NNE) 3,544 7.4 -10.1°
Reaches altitude 10° 06:11:23 10° 13° (NNE) 2,598 6.7 -9.7°
Maximum altitude 06:17:10 77° 289° (WNW) 934 4.3 -8.8°
Drops below altitude 10° 06:22:55 10° 204° (SSW) 2,581 6.7 -7.8°
Sets 06:25:18 0° 203° (SSW) 3,518 7.4 -7.5°
